Hourly Data Report for October 04, 2017

All times are specified in Local Standard Time (LST). Add 1 hour to adjust for Daylight Saving Time where and when it is observed.

PANGNIRTUNG
NUNAVUT

66°08'36.300" N
65°42'40.500" W
22.60 m
2403049
71826
WXP

Download Data

Hourly Data (October 2017)
Hourly Data Report for October 4, 2017
Temp Definition
°C
Dew Point Temp Definition
°C
Rel Hum Definition
%
Wind Dir Definition
10's deg

Wind Spd Definition
km/h
Visibility Definition
km
Stn Press Definition
kPa
Hmdx Definition


Wind Chill Definition


Weather Definition


TIME
00:00 -2.1 -3.0 94 24 30   98.41   -9 LegendNANA
01:00 -2.3 -3.2 93 25 27   98.45   -9 LegendNANA
02:00 -2.0 -3.9 87 27 32   98.49   -9 LegendNANA
03:00 -1.9 -4.2 84 27 31   98.53   -9 LegendNANA
04:00 -1.9 -4.4 83 28 23   98.59   -8 LegendNANA
05:00 -2.1 -4.6 83 27 28   98.69   -9 LegendNANA
06:00 -2.4 -5.5 79 27 23   98.74   -9 LegendNANA
07:00 -2.8 -4.5 88 25 23   98.81   -9 LegendNANA
08:00 -3.0 -4.4 90 27 20   98.86   -9 LegendNANA
09:00 -3.2 -4.3 93 25 29   98.93   -11 LegendNANA
10:00 -2.7 -5.0 84 26 27   98.99   -10 LegendNANA
11:00 -2.6 -5.3 81 26 30   99.09   -10 LegendNANA
12:00 -2.3 -5.1 81 27 20   99.14   -8 LegendNANA
13:00 -2.9 -6.1 79 24 18   99.21   -9 LegendNANA
14:00 -2.2 -6.2 74 21 6   99.29   -5 LegendNANA
15:00 -2.5 -5.9 78 15 9   99.36   -6 LegendNANA
16:00 -2.2 -5.1 81 16 13   99.43   -7 LegendNANA
17:00 -2.0 -4.8 81 17 15   99.50   -7 LegendNANA
18:00 -2.0 -6.0 74 19 10   99.56   -6 LegendNANA
19:00 -1.5 -4.8 78 17 18   99.61   -7 LegendNANA
20:00 -1.1 -4.3 79 15 17   99.63   -6 LegendNANA
21:00 -0.7 -4.0 79 16 20   99.67   -6 LegendNANA
22:00 -0.5 -3.3 81 15 20   99.72   -6 LegendNANA
23:00 -0.6 -3.6 80 15 24   99.75   -7 LegendNANA

Notes on Data Quality.

Legend

  • E = Estimated
  • M = Missing
  • NA = Not Available
  • ‡ = Partner data that is not subject to review by the National Climate Archives
Date modified: